Time,TemperatureF,DewpointF,PressureIn,WindDirection,WindDirectionDegrees,WindSpeedMPH,WindSpeedGustMPH,Humidity,HourlyPrecipIn,Conditions,Clouds,dailyrainin,SoftwareType,DateUTC
2013-02-14 00:00:00,27.9,25.1,29.71,WSW,250,0.0,0.0,89,0.00,BKN,,0.00,WeatherDisplay:10.37,2013-02-14 05:00:00,
2013-02-14 00:05:00,27.9,25.1,29.71,WSW,250,0.0,0.0,89,0.00,BKN,,0.00,WeatherDisplay:10.37,2013-02-14 05:05:00,
2013-02-14 00:10:00,28.0,24.9,29.71,WSW,250,0.0,0.0,88,0.00,BKN,,0.00,WeatherDisplay:10.37,2013-02-14 05:10:00,
2013-02-14 00:15:00,28.0,25.2,29.69,WSW,250,0.0,0.0,89,0.00,BKN,,0.00,WeatherDisplay:10.37,2013-02-14 05:15:00,
2013-02-14 00:20:00,28.1,25.3,29.69,WSW,250,0.0,0.0,89,0.00,OVC,,0.00,WeatherDisplay:10.37,2013-02-14 05:20:00,
2013-02-14 00:25:00,28.1,25.3,29.69,WSW,250,0.0,0.0,89,0.00,OVC,,0.00,WeatherDisplay:10.37,2013-02-14 05:25:00,
2013-02-14 00:35:00,28.3,25.2,29.71,WSW,250,0.0,0.0,88,0.00,OVC,,0.00,WeatherDisplay:10.37,2013-02-14 05:35:00,
2013-02-14 00:40:00,28.4,25.3,29.71,WSW,250,0.0,0.0,88,0.00,OVC,,0.00,WeatherDisplay:10.37,2013-02-14 05:40:00,
2013-02-14 00:45:00,28.4,25.6,29.72,WSW,250,0.0,0.0,89,0.00,OVC,,0.00,WeatherDisplay:10.37,2013-02-14 05:45:00,
2013-02-14 00:50:00,28.5,25.7,29.73,WSW,250,0.0,0.0,89,0.00,OVC,,0.00,WeatherDisplay:10.37,2013-02-14 05:50:00,
2013-02-14 00:55:00,28.5,25.7,29.73,WSW,250,0.0,0.0,89,0.00,OVC,,0.00,WeatherDisplay:10.37,2013-02-14 05:55:00,
2013-02-14 01:00:00,28.5,25.4,29.73,WSW,250,0.0,0.0,88,0.00,OVC,,0.00,WeatherDisplay:10.37,2013-02-14 06:00:00,
2013-02-14 01:05:00,28.5,25.4,29.73,WSW,250,0.0,0.0,88,0.00,OVC,,0.00,WeatherDisplay:10.37,2013-02-14 06:05:00,
2013-02-14 01:10:00,28.5,25.1,29.74,WSW,250,0.0,0.0,87,0.00,OVC,,0.00,WeatherDisplay:10.37,2013-02-14 06:10:00,
2013-02-14 01:15:00,28.5,25.7,29.73,WSW,250,0.0,0.0,89,0.00,OVC,,0.00,WeatherDisplay:10.37,2013-02-14 06:15:00,
2013-02-14 01:20:00,28.5,25.7,29.73,WSW,250,0.0,0.0,89,0.00,OVC,,0.00,WeatherDisplay:10.37,2013-02-14 06:20:00,
2013-02-14 01:25:00,28.5,25.3,29.73,WSW,250,0.0,0.0,88,0.00,OVC,,0.00,WeatherDisplay:10.37,2013-02-14 06:25:00,
2013-02-14 01:30:00,28.4,25.6,29.73,WSW,250,0.0,0.0,89,0.00,OVC,,0.00,WeatherDisplay:10.37,2013-02-14 06:30:00,
2013-02-14 01:35:00,28.4,25.6,29.73,WSW,250,0.0,0.0,89,0.00,OVC,,0.00,WeatherDisplay:10.37,2013-02-14 06:35:00,
2013-02-14 01:40:00,28.4,25.6,29.73,WSW,250,0.0,0.0,89,0.00,OVC,,0.00,WeatherDisplay:10.37,2013-02-14 06:40:00,
2013-02-14 01:45:00,28.4,25.3,29.73,WSW,250,0.0,0.0,88,0.00,OVC,,0.00,WeatherDisplay:10.37,2013-02-14 06:45:00,
2013-02-14 01:50:00,28.4,25.3,29.72,WSW,250,0.0,0.0,88,0.00,OVC,,0.00,WeatherDisplay:10.37,2013-02-14 06:50:00,
2013-02-14 01:55:00,28.3,25.0,29.72,WSW,250,0.0,0.0,87,0.00,OVC,,0.00,WeatherDisplay:10.37,2013-02-14 06:55:00,
2013-02-14 02:00:00,28.3,24.9,29.72,WSW,250,0.0,0.0,87,0.00,OVC,,0.00,WeatherDisplay:10.37,2013-02-14 07:00:00,
2013-02-14 02:05:00,28.3,24.9,29.72,WSW,250,0.0,0.0,87,0.00,OVC,,0.00,WeatherDisplay:10.37,2013-02-14 07:05:00,
2013-02-14 02:10:00,28.3,24.9,29.72,WSW,250,0.0,0.0,87,0.00,OVC,,0.00,WeatherDisplay:10.37,2013-02-14 07:10:00,
2013-02-14 02:15:00,28.4,25.0,29.72,WSW,250,0.0,0.0,87,0.00,OVC,,0.00,WeatherDisplay:10.37,2013-02-14 07:15:00,
2013-02-14 02:20:00,28.4,25.0,29.72,WSW,250,0.0,0.0,87,0.00,OVC,,0.00,WeatherDisplay:10.37,2013-02-14 07:20:00,
2013-02-14 02:25:00,28.4,25.0,29.72,WSW,250,0.0,0.0,87,0.00,OVC,,0.00,WeatherDisplay:10.37,2013-02-14 07:25:00,
2013-02-14 02:30:00,28.4,24.7,29.72,WSW,250,0.0,0.0,86,0.00,OVC,,0.00,WeatherDisplay:10.37,2013-02-14 07:30:00,
2013-02-14 02:35:00,28.4,25.3,29.72,WSW,250,0.0,0.0,88,0.00,OVC,,0.00,WeatherDisplay:10.37,2013-02-14 07:35:00,
2013-02-14 02:40:00,28.3,25.2,29.72,WSW,250,0.0,0.0,88,0.00,OVC,,0.00,WeatherDisplay:10.37,2013-02-14 07:40:00,
2013-02-14 02:45:00,28.2,25.1,29.72,WSW,250,0.0,0.0,88,0.00,OVC,,0.00,WeatherDisplay:10.37,2013-02-14 07:45:00,
2013-02-14 02:50:00,28.2,25.1,29.73,WSW,250,0.0,0.0,88,0.00,OVC,,0.00,WeatherDisplay:10.37,2013-02-14 07:50:00,
2013-02-14 02:55:00,28.1,25.0,29.73,WSW,250,0.0,0.0,88,0.00,OVC,,0.00,WeatherDisplay:10.37,2013-02-14 07:55:00,
2013-02-14 03:00:00,28.0,24.6,29.73,WSW,250,0.0,0.0,87,0.00,OVC,,0.00,WeatherDisplay:10.37,2013-02-14 08:00:00,
2013-02-14 03:05:00,28.0,24.4,29.73,WSW,250,0.0,0.0,86,0.00,OVC,,0.00,WeatherDisplay:10.37,2013-02-14 08:05:00,
2013-02-14 03:10:00,27.9,24.3,29.73,WSW,250,0.0,0.0,86,0.00,OVC,,0.00,WeatherDisplay:10.37,2013-02-14 08:10:00,
2013-02-14 03:15:00,27.8,24.2,29.74,WSW,250,0.0,0.0,86,0.00,OVC,,0.00,WeatherDisplay:10.37,2013-02-14 08:15:00,
2013-02-14 03:20:00,27.6,24.3,29.74,WSW,250,0.0,0.0,87,0.00,CLR,,0.00,WeatherDisplay:10.37,2013-02-14 08:20:00,
2013-02-14 03:25:00,27.5,24.1,29.74,WSW,250,0.0,0.0,87,0.00,CLR,,0.00,WeatherDisplay:10.37,2013-02-14 08:25:00,
2013-02-14 03:30:00,27.4,24.0,29.74,WSW,250,0.0,0.0,87,0.00,CLR,,0.00,WeatherDisplay:10.37,2013-02-14 08:30:00,
2013-02-14 03:35:00,27.3,23.9,29.74,WSW,250,0.0,0.0,87,0.00,CLR,,0.00,WeatherDisplay:10.37,2013-02-14 08:35:00,
2013-02-14 03:40:00,27.2,23.8,29.74,WSW,250,0.0,0.0,87,0.00,CLR,,0.00,WeatherDisplay:10.37,2013-02-14 08:40:00,
2013-02-14 03:45:00,27.1,24.0,29.74,WSW,250,0.0,0.0,88,0.00,CLR,,0.00,WeatherDisplay:10.37,2013-02-14 08:45:00,
2013-02-14 03:50:00,27.0,24.2,29.75,WSW,250,0.0,0.0,89,0.00,CLR,,0.00,WeatherDisplay:10.37,2013-02-14 08:50:00,
2013-02-14 03:55:00,26.9,24.1,29.75,WSW,250,0.0,0.0,89,0.00,CLR,,0.00,WeatherDisplay:10.37,2013-02-14 08:55:00,
2013-02-14 04:00:00,26.8,24.0,29.75,WSW,250,0.0,0.0,89,0.00,CLR,,0.00,WeatherDisplay:10.37,2013-02-14 09:00:00,
2013-02-14 04:05:00,26.7,23.9,29.75,WSW,250,0.0,0.0,89,0.00,CLR,,0.00,WeatherDisplay:10.37,2013-02-14 09:05:00,
2013-02-14 04:10:00,26.7,23.9,29.75,WSW,250,0.0,0.0,89,0.00,CLR,,0.00,WeatherDisplay:10.37,2013-02-14 09:10:00,
2013-02-14 04:15:00,26.6,23.8,29.76,WSW,250,0.0,0.0,89,0.00,CLR,,0.00,WeatherDisplay:10.37,2013-02-14 09:15:00,
2013-02-14 04:20:00,26.6,23.8,29.77,WSW,250,0.0,0.0,89,0.00,FEW,,0.00,WeatherDisplay:10.37,2013-02-14 09:20:00,
2013-02-14 04:25:00,26.6,24.1,29.77,WSW,250,0.0,0.0,90,0.00,FEW,,0.00,WeatherDisplay:10.37,2013-02-14 09:25:00,
2013-02-14 04:30:00,26.5,24.0,29.77,WSW,250,0.0,0.0,90,0.00,FEW,,0.00,WeatherDisplay:10.37,2013-02-14 09:30:00,
2013-02-14 04:35:00,26.5,24.0,29.77,WSW,250,0.0,0.0,90,0.00,FEW,,0.00,WeatherDisplay:10.37,2013-02-14 09:35:00,
2013-02-14 04:40:00,26.5,24.0,29.77,WSW,250,0.0,0.0,90,0.00,FEW,,0.00,WeatherDisplay:10.37,2013-02-14 09:40:00,
2013-02-14 04:45:00,26.5,24.0,29.77,WSW,250,0.0,0.0,90,0.00,FEW,,0.00,WeatherDisplay:10.37,2013-02-14 09:45:00,
2013-02-14 04:50:00,26.6,24.1,29.77,WSW,250,0.0,0.0,90,0.00,FEW,,0.00,WeatherDisplay:10.37,2013-02-14 09:50:00,
2013-02-14 04:55:00,26.6,24.1,29.77,WSW,250,0.0,0.0,90,0.00,FEW,,0.00,WeatherDisplay:10.37,2013-02-14 09:55:00,
2013-02-14 05:00:00,26.6,24.1,29.77,WSW,250,0.0,0.0,90,0.00,FEW,,0.00,WeatherDisplay:10.37,2013-02-14 10:00:00,
2013-02-14 05:05:00,26.6,24.0,29.77,WSW,250,0.0,0.0,90,0.00,FEW,,0.00,WeatherDisplay:10.37,2013-02-14 10:05:00,
2013-02-14 05:10:00,26.5,24.0,29.77,WSW,250,0.0,0.0,90,0.00,FEW,,0.00,WeatherDisplay:10.37,2013-02-14 10:10:00,
2013-02-14 05:15:00,26.5,23.7,29.77,WSW,250,0.0,0.0,89,0.00,FEW,,0.00,WeatherDisplay:10.37,2013-02-14 10:15:00,
2013-02-14 05:20:00,26.3,23.5,29.77,WSW,250,0.0,0.0,89,0.00,OVC,,0.00,WeatherDisplay:10.37,2013-02-14 10:20:00,
2013-02-14 05:25:00,26.2,23.4,29.77,WSW,250,0.0,0.0,89,0.00,OVC,,0.00,WeatherDisplay:10.37,2013-02-14 10:25:00,
2013-02-14 05:30:00,26.1,23.3,29.76,WSW,250,0.0,0.0,89,0.00,OVC,,0.00,WeatherDisplay:10.37,2013-02-14 10:30:00,
2013-02-14 05:35:00,25.9,23.1,29.77,WSW,250,0.0,0.0,89,0.00,OVC,,0.00,WeatherDisplay:10.37,2013-02-14 10:35:00,
2013-02-14 05:40:00,25.7,22.6,29.77,WSW,250,0.0,0.0,88,0.00,OVC,,0.00,WeatherDisplay:10.37,2013-02-14 10:40:00,
2013-02-14 05:50:00,25.2,22.1,29.78,WSW,250,0.0,0.0,88,0.00,OVC,,0.00,WeatherDisplay:10.37,2013-02-14 10:50:00,
2013-02-14 05:55:00,24.9,21.8,29.78,WSW,250,0.0,0.0,88,0.00,OVC,,0.00,WeatherDisplay:10.37,2013-02-14 10:55:00,
2013-02-14 06:00:00,24.6,21.6,29.78,WSW,250,0.0,0.0,88,0.00,OVC,,0.00,WeatherDisplay:10.37,2013-02-14 11:00:00,
2013-02-14 06:05:00,24.4,21.3,29.78,WSW,250,0.0,0.0,88,0.00,OVC,,0.00,WeatherDisplay:10.37,2013-02-14 11:05:00,
2013-02-14 06:10:00,24.1,21.3,29.78,WSW,250,0.0,0.0,89,0.00,OVC,,0.00,WeatherDisplay:10.37,2013-02-14 11:10:00,
2013-02-14 06:15:00,23.9,21.1,29.79,WSW,250,0.0,0.0,89,0.00,OVC,,0.00,WeatherDisplay:10.37,2013-02-14 11:15:00,
2013-02-14 06:20:00,23.6,20.8,29.79,WSW,250,0.0,0.0,89,0.00,OVC,,0.00,WeatherDisplay:10.37,2013-02-14 11:20:00,
2013-02-14 06:25:00,23.4,20.6,29.79,WSW,250,0.0,0.0,89,0.00,OVC,,0.00,WeatherDisplay:10.37,2013-02-14 11:25:00,
2013-02-14 06:30:00,23.1,20.3,29.79,WSW,250,0.0,0.0,89,0.00,OVC,,0.00,WeatherDisplay:10.37,2013-02-14 11:30:00,
2013-02-14 06:35:00,22.9,20.4,29.79,WSW,250,0.0,0.0,90,0.00,OVC,,0.00,WeatherDisplay:10.37,2013-02-14 11:35:00,
2013-02-14 06:40:00,22.6,20.1,29.79,WSW,250,0.0,0.0,90,0.00,OVC,,0.00,WeatherDisplay:10.37,2013-02-14 11:40:00,
2013-02-14 06:45:00,22.4,19.9,29.79,WSW,250,0.0,0.0,90,0.00,OVC,,0.00,WeatherDisplay:10.37,2013-02-14 11:45:00,
2013-02-14 06:50:00,22.1,19.6,29.79,WSW,250,0.0,0.0,90,0.00,OVC,,0.00,WeatherDisplay:10.37,2013-02-14 11:50:00,
2013-02-14 06:55:00,22.0,19.8,29.80,WSW,250,0.0,0.0,91,0.00,OVC,,0.00,WeatherDisplay:10.37,2013-02-14 11:55:00,
2013-02-14 07:00:00,21.8,19.6,29.80,WSW,250,0.0,0.0,91,0.00,OVC,,0.00,WeatherDisplay:10.37,2013-02-14 12:00:00,
2013-02-14 07:05:00,21.6,19.1,29.80,WSW,250,0.0,0.0,90,0.00,OVC,,0.00,WeatherDisplay:10.37,2013-02-14 12:05:00,
2013-02-14 07:10:00,21.5,19.3,29.81,WSW,250,0.0,0.0,91,0.00,OVC,,0.00,WeatherDisplay:10.37,2013-02-14 12:10:00,
2013-02-14 07:15:00,21.4,19.2,29.82,WSW,250,0.0,0.0,91,0.00,OVC,,0.00,WeatherDisplay:10.37,2013-02-14 12:15:00,
2013-02-14 07:20:00,21.3,19.1,29.82,WSW,250,0.0,0.0,91,0.00,FEW,,0.00,WeatherDisplay:10.37,2013-02-14 12:20:00,
2013-02-14 07:25:00,21.2,18.9,29.82,WSW,250,0.0,0.0,91,0.00,FEW,,0.00,WeatherDisplay:10.37,2013-02-14 12:25:00,
2013-02-14 07:35:00,20.9,18.7,29.83,WSW,250,0.0,0.0,91,0.00,FEW,,0.00,WeatherDisplay:10.37,2013-02-14 12:35:00,
2013-02-14 07:40:00,21.0,19.0,29.83,WSW,250,0.0,0.0,92,0.00,FEW,,0.00,WeatherDisplay:10.37,2013-02-14 12:40:00,
2013-02-14 07:45:00,21.1,19.1,29.83,WSW,250,0.0,0.0,92,0.00,FEW,,0.00,WeatherDisplay:10.37,2013-02-14 12:45:00,
2013-02-14 07:50:00,21.2,19.2,29.83,WSW,250,0.0,0.0,92,0.00,FEW,,0.00,WeatherDisplay:10.37,2013-02-14 12:50:00,
2013-02-14 07:55:00,21.3,19.3,29.83,WSW,250,0.0,0.0,92,0.00,FEW,,0.00,WeatherDisplay:10.37,2013-02-14 12:55:00,
2013-02-14 08:00:00,21.5,19.5,29.83,WSW,250,0.0,0.0,92,0.00,FEW,,0.00,WeatherDisplay:10.37,2013-02-14 13:00:00,
2013-02-14 08:05:00,21.7,19.7,29.83,WSW,250,0.0,0.0,92,0.00,FEW,,0.00,WeatherDisplay:10.37,2013-02-14 13:05:00,
2013-02-14 08:10:00,21.9,19.9,29.84,WSW,250,0.0,0.0,92,0.00,FEW,,0.00,WeatherDisplay:10.37,2013-02-14 13:10:00,
2013-02-14 08:15:00,22.2,20.2,29.84,WSW,250,0.0,0.0,92,0.00,FEW,,0.00,WeatherDisplay:10.37,2013-02-14 13:15:00,
2013-02-14 08:20:00,22.5,20.5,29.84,WSW,250,0.0,0.0,92,0.00,BKN,,0.00,WeatherDisplay:10.37,2013-02-14 13:20:00,
2013-02-14 08:25:00,22.8,20.8,29.84,WSW,250,0.0,0.0,92,0.00,BKN,,0.00,WeatherDisplay:10.37,2013-02-14 13:25:00,
2013-02-14 08:30:00,23.1,20.9,29.84,WSW,250,0.0,0.0,91,0.00,BKN,,0.00,WeatherDisplay:10.37,2013-02-14 13:30:00,
2013-02-14 08:35:00,23.5,21.3,29.84,WSW,250,0.0,0.0,91,0.00,BKN,,0.00,WeatherDisplay:10.37,2013-02-14 13:35:00,
2013-02-14 08:40:00,24.1,21.8,29.84,WSW,250,0.0,0.0,91,0.00,BKN,,0.00,WeatherDisplay:10.37,2013-02-14 13:40:00,
2013-02-14 08:45:00,24.7,22.2,29.85,WSW,250,0.0,0.0,90,0.00,BKN,,0.00,WeatherDisplay:10.37,2013-02-14 13:45:00,
2013-02-14 08:50:00,25.3,22.5,29.85,WSW,250,0.0,0.0,89,0.00,BKN,,0.00,WeatherDisplay:10.37,2013-02-14 13:50:00,
2013-02-14 08:55:00,26.0,22.9,29.85,West,262,0.0,0.0,88,0.00,BKN,,0.00,WeatherDisplay:10.37,2013-02-14 13:55:00,
2013-02-14 09:00:00,27.0,23.0,29.86,NW,321,0.0,0.0,85,0.00,BKN,,0.00,WeatherDisplay:10.37,2013-02-14 14:00:00,
2013-02-14 09:05:00,28.4,23.0,29.86,NNW,327,0.0,0.0,80,0.00,BKN,,0.00,WeatherDisplay:10.37,2013-02-14 14:05:00,
2013-02-14 09:10:00,29.5,23.2,29.86,WNW,287,0.0,0.0,77,0.00,BKN,,0.00,WeatherDisplay:10.37,2013-02-14 14:10:00,
2013-02-14 09:15:00,30.3,23.4,29.86,West,281,0.0,0.0,75,0.00,BKN,,0.00,WeatherDisplay:10.37,2013-02-14 14:15:00,
2013-02-14 09:20:00,31.4,23.7,29.86,WNW,293,0.0,0.0,73,0.00,BKN,,0.00,WeatherDisplay:10.37,2013-02-14 14:20:00,
2013-02-14 09:25:00,32.3,23.3,29.86,WNW,303,0.0,3.0,69,0.00,BKN,,0.00,WeatherDisplay:10.37,2013-02-14 14:25:00,
2013-02-14 09:30:00,33.3,23.2,29.86,WNW,294,1.0,4.0,66,0.00,BKN,,0.00,WeatherDisplay:10.37,2013-02-14 14:30:00,
2013-02-14 09:35:00,34.2,23.3,29.86,West,278,2.0,4.0,64,0.00,BKN,,0.00,WeatherDisplay:10.37,2013-02-14 14:35:00,
2013-02-14 09:40:00,34.9,23.6,29.87,West,272,1.0,4.0,63,0.00,BKN,,0.00,WeatherDisplay:10.37,2013-02-14 14:40:00,
2013-02-14 09:45:00,35.5,23.3,29.87,WNW,297,0.0,3.0,61,0.00,BKN,,0.00,WeatherDisplay:10.37,2013-02-14 14:45:00,
2013-02-14 09:50:00,35.9,23.4,29.87,WNW,300,1.0,5.0,60,0.00,BKN,,0.00,WeatherDisplay:10.37,2013-02-14 14:50:00,
2013-02-14 09:55:00,36.2,23.7,29.87,WNW,297,1.0,5.0,60,0.00,BKN,,0.00,WeatherDisplay:10.37,2013-02-14 14:55:00,
2013-02-14 10:05:00,36.6,23.2,29.88,North,10,2.0,5.0,58,0.00,BKN,,0.00,WeatherDisplay:10.37,2013-02-14 15:05:00,
2013-02-14 10:10:00,36.8,23.4,29.87,NW,322,1.0,4.0,58,0.00,BKN,,0.00,WeatherDisplay:10.37,2013-02-14 15:10:00,
2013-02-14 10:15:00,37.2,24.2,29.88,NW,320,1.0,5.0,59,0.00,BKN,,0.00,WeatherDisplay:10.37,2013-02-14 15:15:00,
2013-02-14 10:20:00,37.4,24.0,29.87,North,353,3.0,6.0,58,0.00,BKN,,0.00,WeatherDisplay:10.37,2013-02-14 15:20:00,
2013-02-14 10:30:00,37.7,24.3,29.87,WNW,303,1.0,4.0,58,0.00,BKN,,0.00,WeatherDisplay:10.37,2013-02-14 15:30:00,
2013-02-14 10:35:00,38.0,24.9,29.87,NNW,327,2.0,5.0,59,0.00,BKN,,0.00,WeatherDisplay:10.37,2013-02-14 15:35:00,
2013-02-14 10:40:00,38.1,24.7,29.88,NW,321,1.0,4.0,58,0.00,BKN,,0.00,WeatherDisplay:10.37,2013-02-14 15:40:00,
2013-02-14 10:45:00,38.2,24.3,29.88,NNW,341,2.0,4.0,57,0.00,BKN,,0.00,WeatherDisplay:10.37,2013-02-14 15:45:00,
2013-02-14 10:50:00,38.1,24.2,29.88,North,353,2.0,7.0,57,0.00,BKN,,0.00,WeatherDisplay:10.37,2013-02-14 15:50:00,
2013-02-14 10:55:00,38.0,24.1,29.88,NNE,13,2.0,5.0,57,0.00,BKN,,0.00,WeatherDisplay:10.37,2013-02-14 15:55:00,
2013-02-14 11:05:00,38.0,24.5,29.89,NW,322,0.0,3.0,58,0.00,BKN,,0.00,WeatherDisplay:10.37,2013-02-14 16:05:00,
2013-02-14 11:10:00,38.2,24.3,29.89,NNW,337,5.0,9.0,57,0.00,BKN,,0.00,WeatherDisplay:10.37,2013-02-14 16:10:00,
2013-02-14 11:15:00,38.2,23.8,29.89,NNW,345,1.0,4.0,56,0.00,BKN,,0.00,WeatherDisplay:10.37,2013-02-14 16:15:00,
2013-02-14 11:20:00,38.2,23.9,29.88,NNW,338,3.0,6.0,56,0.00,BKN,,0.00,WeatherDisplay:10.37,2013-02-14 16:20:00,
2013-02-14 11:25:00,38.4,23.6,29.88,NNW,329,1.0,4.0,55,0.00,BKN,,0.00,WeatherDisplay:10.37,2013-02-14 16:25:00,
2013-02-14 11:30:00,38.7,23.9,29.88,North,352,0.0,5.0,55,0.00,BKN,,0.00,WeatherDisplay:10.37,2013-02-14 16:30:00,
2013-02-14 11:35:00,38.8,24.4,29.88,NNW,348,1.0,3.0,56,0.00,BKN,,0.00,WeatherDisplay:10.37,2013-02-14 16:35:00,
2013-02-14 11:40:00,39.0,24.2,29.88,NNW,328,1.0,6.0,55,0.00,BKN,,0.00,WeatherDisplay:10.37,2013-02-14 16:40:00,
2013-02-14 11:45:00,38.9,24.1,29.88,NNW,343,2.0,8.0,55,0.00,BKN,,0.00,WeatherDisplay:10.37,2013-02-14 16:45:00,
2013-02-14 11:50:00,39.0,25.0,29.88,North,354,1.0,4.0,57,0.00,BKN,,0.00,WeatherDisplay:10.37,2013-02-14 16:50:00,
2013-02-14 11:55:00,39.0,24.6,29.88,NW,316,2.0,5.0,56,0.00,BKN,,0.00,WeatherDisplay:10.37,2013-02-14 16:55:00,
2013-02-14 12:00:00,39.0,23.7,29.88,NW,312,0.0,5.0,54,0.00,BKN,,0.00,WeatherDisplay:10.37,2013-02-14 17:00:00,
2013-02-14 12:05:00,38.8,23.6,29.88,NNW,341,2.0,7.0,54,0.00,BKN,,0.00,WeatherDisplay:10.37,2013-02-14 17:05:00,
2013-02-14 12:10:00,38.6,23.4,29.88,NNW,347,0.0,5.0,54,0.00,BKN,,0.00,WeatherDisplay:10.37,2013-02-14 17:10:00,
2013-02-14 12:15:00,38.8,23.6,29.88,NW,313,1.0,3.0,54,0.00,BKN,,0.00,WeatherDisplay:10.37,2013-02-14 17:15:00,
2013-02-14 12:20:00,39.1,24.2,29.87,WNW,293,2.0,6.0,55,0.00,BKN,,0.00,WeatherDisplay:10.37,2013-02-14 17:20:00,
2013-02-14 12:25:00,39.2,23.9,29.87,NNW,344,2.0,8.0,54,0.00,BKN,,0.00,WeatherDisplay:10.37,2013-02-14 17:25:00,
2013-02-14 12:30:00,39.4,24.6,29.87,NNW,347,1.0,7.0,55,0.00,BKN,,0.00,WeatherDisplay:10.37,2013-02-14 17:30:00,
2013-02-14 12:35:00,39.7,23.5,29.87,North,354,3.0,7.0,52,0.00,BKN,,0.00,WeatherDisplay:10.37,2013-02-14 17:35:00,
2013-02-14 12:40:00,39.6,23.9,29.87,North,5,2.0,5.0,53,0.00,BKN,,0.00,WeatherDisplay:10.37,2013-02-14 17:40:00,
2013-02-14 12:45:00,39.8,24.1,29.87,North,9,3.0,5.0,53,0.00,BKN,,0.00,WeatherDisplay:10.37,2013-02-14 17:45:00,
2013-02-14 12:50:00,40.3,24.0,29.87,NW,324,3.0,6.0,52,0.00,BKN,,0.00,WeatherDisplay:10.37,2013-02-14 17:50:00,
2013-02-14 12:55:00,40.7,23.5,29.87,WNW,290,0.0,3.0,50,0.00,BKN,,0.00,WeatherDisplay:10.37,2013-02-14 17:55:00,
2013-02-14 13:00:00,41.0,24.3,29.87,WNW,287,1.0,6.0,51,0.00,BKN,,0.00,WeatherDisplay:10.37,2013-02-14 18:00:00,
2013-02-14 13:05:00,41.4,24.1,29.87,WNW,289,0.0,4.0,50,0.00,FEW,,0.00,WeatherDisplay:10.37,2013-02-14 18:05:00,
2013-02-14 13:10:00,41.6,24.3,29.87,NNW,329,2.0,6.0,50,0.00,FEW,,0.00,WeatherDisplay:10.37,2013-02-14 18:10:00,
2013-02-14 13:15:00,41.3,23.5,29.87,North,11,0.0,6.0,49,0.00,FEW,,0.00,WeatherDisplay:10.37,2013-02-14 18:15:00,
2013-02-14 13:20:00,41.3,24.5,29.87,NNE,18,0.0,4.0,51,0.00,FEW,,0.00,WeatherDisplay:10.37,2013-02-14 18:20:00,
2013-02-14 13:25:00,41.4,24.1,29.87,North,7,3.0,5.0,50,0.00,FEW,,0.00,WeatherDisplay:10.37,2013-02-14 18:25:00,
2013-02-14 13:30:00,41.1,23.9,29.87,NNE,33,1.0,5.0,50,0.00,FEW,,0.00,WeatherDisplay:10.37,2013-02-14 18:30:00,
2013-02-14 13:35:00,41.2,24.4,29.86,NNE,16,2.0,5.0,51,0.00,FEW,,0.00,WeatherDisplay:10.37,2013-02-14 18:35:00,
2013-02-14 13:40:00,41.5,24.2,29.87,North,356,2.0,7.0,50,0.00,FEW,,0.00,WeatherDisplay:10.37,2013-02-14 18:40:00,
2013-02-14 13:45:00,41.4,24.2,29.87,NNE,22,1.0,5.0,50,0.00,FEW,,0.00,WeatherDisplay:10.37,2013-02-14 18:45:00,
2013-02-14 13:50:00,41.4,24.6,29.87,North,8,0.0,3.0,51,0.00,FEW,,0.00,WeatherDisplay:10.37,2013-02-14 18:50:00,
2013-02-14 13:55:00,41.4,23.6,29.87,North,350,1.0,5.0,49,0.00,FEW,,0.00,WeatherDisplay:10.37,2013-02-14 18:55:00,
2013-02-14 14:00:00,41.2,23.9,29.87,NNW,336,2.0,4.0,50,0.00,FEW,,0.00,WeatherDisplay:10.37,2013-02-14 19:00:00,
2013-02-14 14:05:00,40.9,23.7,29.87,NNW,341,1.0,6.0,50,0.00,FEW,,0.00,WeatherDisplay:10.37,2013-02-14 19:05:00,
2013-02-14 14:10:00,40.9,23.7,29.87,NW,326,0.0,3.0,50,0.00,FEW,,0.00,WeatherDisplay:10.37,2013-02-14 19:10:00,
2013-02-14 14:15:00,40.9,23.2,29.87,WSW,251,0.0,2.0,49,0.00,FEW,,0.00,WeatherDisplay:10.37,2013-02-14 19:15:00,
2013-02-14 14:20:00,40.8,23.1,29.87,WSW,241,0.0,3.0,49,0.00,FEW,,0.00,WeatherDisplay:10.37,2013-02-14 19:20:00,
2013-02-14 14:25:00,40.9,23.2,29.87,WSW,241,1.0,4.0,49,0.00,FEW,,0.00,WeatherDisplay:10.37,2013-02-14 19:25:00,
2013-02-14 14:30:00,40.9,23.7,29.87,West,264,0.0,6.0,50,0.00,FEW,,0.00,WeatherDisplay:10.37,2013-02-14 19:30:00,
2013-02-14 14:35:00,40.9,23.2,29.87,West,272,1.0,4.0,49,0.00,FEW,,0.00,WeatherDisplay:10.37,2013-02-14 19:35:00,
2013-02-14 14:40:00,40.9,24.1,29.87,NW,324,0.0,5.0,51,0.00,FEW,,0.00,WeatherDisplay:10.37,2013-02-14 19:40:00,
2013-02-14 14:45:00,40.9,23.2,29.87,NW,320,1.0,5.0,49,0.00,FEW,,0.00,WeatherDisplay:10.37,2013-02-14 19:45:00,
2013-02-14 14:50:00,40.8,23.1,29.87,NW,318,0.0,4.0,49,0.00,FEW,,0.00,WeatherDisplay:10.37,2013-02-14 19:50:00,
2013-02-14 14:55:00,40.8,24.1,29.87,North,349,0.0,2.0,51,0.00,FEW,,0.00,WeatherDisplay:10.37,2013-02-14 19:55:00,
2013-02-14 15:00:00,40.9,22.7,29.87,North,355,0.0,3.0,48,0.00,FEW,,0.00,WeatherDisplay:10.37,2013-02-14 20:00:00,
2013-02-14 15:05:00,41.0,24.2,29.88,NNW,347,1.0,3.0,51,0.00,FEW,,0.00,WeatherDisplay:10.37,2013-02-14 20:05:00,
2013-02-14 15:10:00,41.1,24.8,29.88,NW,326,0.0,3.0,52,0.00,FEW,,0.00,WeatherDisplay:10.37,2013-02-14 20:10:00,
2013-02-14 15:15:00,41.4,25.1,29.88,NW,317,0.0,2.0,52,0.00,FEW,,0.00,WeatherDisplay:10.37,2013-02-14 20:15:00,
2013-02-14 15:20:00,41.7,23.5,29.89,West,273,1.0,3.0,48,0.00,FEW,,0.00,WeatherDisplay:10.37,2013-02-14 20:20:00,
2013-02-14 15:30:00,41.6,23.3,29.89,West,266,0.0,1.0,48,0.00,FEW,,0.00,WeatherDisplay:10.37,2013-02-14 20:30:00,
2013-02-14 15:35:00,41.5,23.7,29.89,West,266,0.0,2.0,49,0.00,FEW,,0.00,WeatherDisplay:10.37,2013-02-14 20:35:00,
2013-02-14 15:40:00,41.3,24.0,29.89,South,190,0.0,0.0,50,0.00,FEW,,0.00,WeatherDisplay:10.37,2013-02-14 20:40:00,
2013-02-14 15:45:00,41.2,24.9,29.89,SSE,160,0.0,0.0,52,0.00,FEW,,0.00,WeatherDisplay:10.37,2013-02-14 20:45:00,
2013-02-14 15:50:00,41.0,25.1,29.89,South,169,1.0,2.0,53,0.00,FEW,,0.00,WeatherDisplay:10.37,2013-02-14 20:50:00,
2013-02-14 16:00:00,40.7,23.5,29.88,SW,219,0.0,0.0,50,0.00,FEW,,0.00,WeatherDisplay:10.37,2013-02-14 21:00:00,
2013-02-14 16:05:00,40.7,23.0,29.89,SW,220,0.0,0.0,49,0.00,CLR,,0.00,WeatherDisplay:10.37,2013-02-14 21:05:00,
2013-02-14 16:10:00,40.6,24.8,29.89,SW,232,0.0,0.0,53,0.00,CLR,,0.00,WeatherDisplay:10.37,2013-02-14 21:10:00,
2013-02-14 16:15:00,40.5,24.2,29.89,WSW,242,0.0,0.0,52,0.00,CLR,,0.00,WeatherDisplay:10.37,2013-02-14 21:15:00,
2013-02-14 16:20:00,40.4,25.9,29.89,WSW,242,0.0,0.0,56,0.00,CLR,,0.00,WeatherDisplay:10.37,2013-02-14 21:20:00,
2013-02-14 16:25:00,40.3,24.1,29.90,WSW,242,0.0,0.0,52,0.00,CLR,,0.00,WeatherDisplay:10.37,2013-02-14 21:25:00,
2013-02-14 16:30:00,40.3,24.1,29.89,WSW,249,0.0,0.0,52,0.00,CLR,,0.00,WeatherDisplay:10.37,2013-02-14 21:30:00,
2013-02-14 16:40:00,39.8,24.5,29.90,West,269,0.0,0.0,54,0.00,CLR,,0.00,WeatherDisplay:10.37,2013-02-14 21:40:00,
2013-02-14 16:45:00,39.3,25.8,29.90,West,273,0.0,0.0,58,0.00,CLR,,0.00,WeatherDisplay:10.37,2013-02-14 21:45:00,
2013-02-14 16:50:00,38.9,25.0,29.90,West,275,0.0,0.0,57,0.00,CLR,,0.00,WeatherDisplay:10.37,2013-02-14 21:50:00,
2013-02-14 16:55:00,38.6,25.9,29.90,West,275,0.0,0.0,60,0.00,CLR,,0.00,WeatherDisplay:10.37,2013-02-14 21:55:00,
2013-02-14 17:00:00,38.1,26.3,29.91,West,275,0.0,0.0,62,0.00,CLR,,0.00,WeatherDisplay:10.37,2013-02-14 22:00:00,
2013-02-14 17:05:00,37.7,25.8,29.91,West,275,0.0,0.0,62,0.00,CLR,,0.00,WeatherDisplay:10.37,2013-02-14 22:05:00,
2013-02-14 17:10:00,37.1,26.4,29.91,West,275,0.0,0.0,65,0.00,CLR,,0.00,WeatherDisplay:10.37,2013-02-14 22:10:00,
2013-02-14 17:15:00,36.6,26.7,29.92,West,275,0.0,0.0,67,0.00,CLR,,0.00,WeatherDisplay:10.37,2013-02-14 22:15:00,
2013-02-14 17:20:00,36.1,26.9,29.92,West,275,0.0,0.0,69,0.00,CLR,,0.00,WeatherDisplay:10.37,2013-02-14 22:20:00,
2013-02-14 17:25:00,35.7,26.5,29.92,West,275,0.0,0.0,69,0.00,CLR,,0.00,WeatherDisplay:10.37,2013-02-14 22:25:00,
2013-02-14 17:30:00,35.2,27.4,29.92,West,275,0.0,0.0,73,0.00,CLR,,0.00,WeatherDisplay:10.37,2013-02-14 22:30:00,
2013-02-14 17:35:00,34.6,26.2,29.92,West,275,0.0,0.0,71,0.00,CLR,,0.00,WeatherDisplay:10.37,2013-02-14 22:35:00,
2013-02-14 17:40:00,34.2,27.1,29.92,West,275,0.0,0.0,75,0.00,CLR,,0.00,WeatherDisplay:10.37,2013-02-14 22:40:00,
2013-02-14 17:45:00,33.7,27.0,29.92,West,275,0.0,0.0,76,0.00,CLR,,0.00,WeatherDisplay:10.37,2013-02-14 22:45:00,
2013-02-14 17:50:00,33.3,25.9,29.92,West,275,0.0,0.0,74,0.00,CLR,,0.00,WeatherDisplay:10.37,2013-02-14 22:50:00,
2013-02-14 18:00:00,32.5,26.7,29.93,West,275,0.0,0.0,79,0.00,CLR,,0.00,WeatherDisplay:10.37,2013-02-14 23:00:00,
2013-02-14 18:05:00,32.1,25.7,29.93,West,275,0.0,0.0,77,0.00,CLR,,0.00,WeatherDisplay:10.37,2013-02-14 23:05:00,
2013-02-14 18:10:00,31.8,25.1,29.93,West,275,0.0,0.0,76,0.00,CLR,,0.00,WeatherDisplay:10.37,2013-02-14 23:10:00,
2013-02-14 18:15:00,31.5,24.8,29.93,West,275,0.0,0.0,76,0.00,CLR,,0.00,WeatherDisplay:10.37,2013-02-14 23:15:00,
2013-02-14 18:20:00,31.1,25.7,29.94,West,275,0.0,0.0,80,0.00,CLR,,0.00,WeatherDisplay:10.37,2013-02-14 23:20:00,
2013-02-14 18:25:00,30.8,25.4,29.94,West,275,0.0,0.0,80,0.00,CLR,,0.00,WeatherDisplay:10.37,2013-02-14 23:25:00,
2013-02-14 18:30:00,30.5,25.1,29.94,West,275,0.0,0.0,80,0.00,CLR,,0.00,WeatherDisplay:10.37,2013-02-14 23:30:00,
2013-02-14 18:35:00,30.2,25.1,29.94,West,275,0.0,0.0,81,0.00,CLR,,0.00,WeatherDisplay:10.37,2013-02-14 23:35:00,
2013-02-14 18:40:00,29.9,24.2,29.95,West,275,0.0,0.0,79,0.00,CLR,,0.00,WeatherDisplay:10.37,2013-02-14 23:40:00,
2013-02-14 18:45:00,29.7,24.0,29.95,West,275,0.0,0.0,79,0.00,CLR,,0.00,WeatherDisplay:10.37,2013-02-14 23:45:00,
2013-02-14 18:50:00,29.5,24.7,29.95,West,273,0.0,0.0,82,0.00,CLR,,0.00,WeatherDisplay:10.37,2013-02-14 23:50:00,
2013-02-14 18:55:00,29.4,23.9,29.95,West,269,0.0,0.0,80,0.00,CLR,,0.00,WeatherDisplay:10.37,2013-02-14 23:55:00,
2013-02-14 19:00:00,29.2,24.1,29.95,West,267,0.0,0.0,81,0.00,CLR,,0.00,WeatherDisplay:10.37,2013-02-15 00:00:00,
2013-02-14 19:05:00,29.1,24.0,29.95,West,267,0.0,0.0,81,0.00,CLR,,0.00,WeatherDisplay:10.37,2013-02-15 00:05:00,
2013-02-14 19:10:00,28.9,23.8,29.95,West,267,0.0,0.0,81,0.00,CLR,,0.00,WeatherDisplay:10.37,2013-02-15 00:10:00,
2013-02-14 19:15:00,28.7,23.9,29.95,West,267,0.0,0.0,82,0.00,CLR,,0.00,WeatherDisplay:10.37,2013-02-15 00:15:00,
2013-02-14 19:20:00,28.6,23.8,29.95,West,267,0.0,0.0,82,0.00,CLR,,0.00,WeatherDisplay:10.37,2013-02-15 00:20:00,
2013-02-14 19:25:00,28.4,23.6,29.95,West,267,0.0,0.0,82,0.00,CLR,,0.00,WeatherDisplay:10.37,2013-02-15 00:25:00,
2013-02-14 19:30:00,28.2,23.7,29.95,West,267,0.0,0.0,83,0.00,CLR,,0.00,WeatherDisplay:10.37,2013-02-15 00:30:00,
2013-02-14 19:35:00,28.0,23.5,29.95,West,267,0.0,0.0,83,0.00,CLR,,0.00,WeatherDisplay:10.37,2013-02-15 00:35:00,
2013-02-14 19:40:00,27.8,23.3,29.96,West,267,0.0,0.0,83,0.00,CLR,,0.00,WeatherDisplay:10.37,2013-02-15 00:40:00,
2013-02-14 19:45:00,27.6,23.1,29.96,West,267,0.0,0.0,83,0.00,CLR,,0.00,WeatherDisplay:10.37,2013-02-15 00:45:00,
2013-02-14 19:50:00,27.5,23.3,29.96,West,267,0.0,0.0,84,0.00,CLR,,0.00,WeatherDisplay:10.37,2013-02-15 00:50:00,
2013-02-14 19:55:00,27.3,23.1,29.96,West,267,0.0,0.0,84,0.00,CLR,,0.00,WeatherDisplay:10.37,2013-02-15 00:55:00,
2013-02-14 20:00:00,27.1,22.9,29.96,West,267,0.0,0.0,84,0.00,CLR,,0.00,WeatherDisplay:10.37,2013-02-15 01:00:00,
2013-02-14 20:05:00,27.0,23.1,29.96,West,267,0.0,0.0,85,0.00,CLR,,0.00,WeatherDisplay:10.37,2013-02-15 01:05:00,
2013-02-14 20:10:00,26.8,22.9,29.95,West,267,0.0,0.0,85,0.00,CLR,,0.00,WeatherDisplay:10.37,2013-02-15 01:10:00,
2013-02-14 20:15:00,26.7,22.8,29.95,West,267,0.0,0.0,85,0.00,CLR,,0.00,WeatherDisplay:10.37,2013-02-15 01:15:00,
2013-02-14 20:20:00,26.5,22.6,29.95,West,267,0.0,0.0,85,0.00,CLR,,0.00,WeatherDisplay:10.37,2013-02-15 01:20:00,
2013-02-14 20:25:00,26.4,22.8,29.96,West,267,0.0,0.0,86,0.00,CLR,,0.00,WeatherDisplay:10.37,2013-02-15 01:25:00,
2013-02-14 20:30:00,26.3,23.0,29.96,West,267,0.0,0.0,87,0.00,CLR,,0.00,WeatherDisplay:10.37,2013-02-15 01:30:00,
2013-02-14 20:35:00,26.2,22.8,29.96,West,267,0.0,0.0,87,0.00,CLR,,0.00,WeatherDisplay:10.37,2013-02-15 01:35:00,
2013-02-14 20:40:00,26.0,22.7,29.96,West,267,0.0,0.0,87,0.00,CLR,,0.00,WeatherDisplay:10.37,2013-02-15 01:40:00,
2013-02-14 20:45:00,25.8,22.8,29.96,West,267,0.0,0.0,88,0.00,CLR,,0.00,WeatherDisplay:10.37,2013-02-15 01:45:00,
2013-02-14 20:50:00,25.7,22.6,29.96,West,267,0.0,0.0,88,0.00,CLR,,0.00,WeatherDisplay:10.37,2013-02-15 01:50:00,
2013-02-14 20:55:00,25.6,22.5,29.95,West,267,0.0,0.0,88,0.00,CLR,,0.00,WeatherDisplay:10.37,2013-02-15 01:55:00,
2013-02-14 21:05:00,25.4,22.3,29.95,West,267,0.0,0.0,88,0.00,CLR,,0.00,WeatherDisplay:10.37,2013-02-15 02:05:00,
2013-02-14 21:10:00,25.2,22.4,29.95,West,267,0.0,0.0,89,0.00,CLR,,0.00,WeatherDisplay:10.37,2013-02-15 02:10:00,
2013-02-14 21:15:00,25.2,22.7,29.95,West,267,0.0,0.0,90,0.00,CLR,,0.00,WeatherDisplay:10.37,2013-02-15 02:15:00,
2013-02-14 21:20:00,25.1,22.6,29.95,West,267,0.0,0.0,90,0.00,CLR,,0.00,WeatherDisplay:10.37,2013-02-15 02:20:00,
2013-02-14 21:25:00,25.0,22.5,29.95,West,267,0.0,0.0,90,0.00,CLR,,0.00,WeatherDisplay:10.37,2013-02-15 02:25:00,
2013-02-14 21:30:00,24.8,22.1,29.95,West,267,0.0,0.0,89,0.00,CLR,,0.00,WeatherDisplay:10.37,2013-02-15 02:30:00,
2013-02-14 21:35:00,24.6,21.9,29.95,West,267,0.0,0.0,89,0.00,CLR,,0.00,WeatherDisplay:10.37,2013-02-15 02:35:00,
2013-02-14 21:40:00,24.4,21.6,29.95,West,267,0.0,0.0,89,0.00,CLR,,0.00,WeatherDisplay:10.37,2013-02-15 02:40:00,
2013-02-14 21:45:00,24.3,21.8,29.95,West,267,0.0,0.0,90,0.00,CLR,,0.00,WeatherDisplay:10.37,2013-02-15 02:45:00,
2013-02-14 21:50:00,24.2,22.0,29.95,West,267,0.0,0.0,91,0.00,CLR,,0.00,WeatherDisplay:10.37,2013-02-15 02:50:00,
2013-02-14 21:55:00,24.1,21.6,29.95,West,267,0.0,0.0,90,0.00,CLR,,0.00,WeatherDisplay:10.37,2013-02-15 02:55:00,
2013-02-14 22:05:00,24.0,21.5,29.96,West,267,0.0,0.0,90,0.00,CLR,,0.00,WeatherDisplay:10.37,2013-02-15 03:05:00,
2013-02-14 22:10:00,23.9,21.4,29.95,West,267,0.0,0.0,90,0.00,CLR,,0.00,WeatherDisplay:10.37,2013-02-15 03:10:00,
2013-02-14 22:15:00,23.7,21.2,29.95,West,267,0.0,0.0,90,0.00,CLR,,0.00,WeatherDisplay:10.37,2013-02-15 03:15:00,
2013-02-14 22:25:00,23.4,20.9,29.96,West,267,0.0,0.0,90,0.00,CLR,,0.00,WeatherDisplay:10.37,2013-02-15 03:25:00,
2013-02-14 22:30:00,23.3,20.8,29.96,West,267,0.0,0.0,90,0.00,CLR,,0.00,WeatherDisplay:10.37,2013-02-15 03:30:00,
2013-02-14 22:35:00,23.3,21.1,29.96,West,267,0.0,0.0,91,0.00,CLR,,0.00,WeatherDisplay:10.37,2013-02-15 03:35:00,
2013-02-14 22:40:00,23.3,21.0,29.96,West,267,0.0,0.0,91,0.00,CLR,,0.00,WeatherDisplay:10.37,2013-02-15 03:40:00,
2013-02-14 22:45:00,23.2,20.9,29.96,West,267,0.0,0.0,91,0.00,CLR,,0.00,WeatherDisplay:10.37,2013-02-15 03:45:00,
2013-02-14 22:50:00,23.2,21.0,29.96,West,267,0.0,0.0,91,0.00,CLR,,0.00,WeatherDisplay:10.37,2013-02-15 03:50:00,
2013-02-14 23:00:00,23.4,21.1,29.96,West,267,0.0,0.0,91,0.00,CLR,,0.00,WeatherDisplay:10.37,2013-02-15 04:00:00,
2013-02-14 23:05:00,23.4,21.1,29.97,West,267,0.0,0.0,91,0.00,CLR,,0.00,WeatherDisplay:10.37,2013-02-15 04:05:00,
2013-02-14 23:10:00,23.3,21.1,29.97,West,267,0.0,0.0,91,0.00,CLR,,0.00,WeatherDisplay:10.37,2013-02-15 04:10:00,
2013-02-14 23:15:00,23.3,21.1,29.97,West,267,0.0,0.0,91,0.00,CLR,,0.00,WeatherDisplay:10.37,2013-02-15 04:15:00,
2013-02-14 23:20:00,23.4,21.2,29.97,West,267,0.0,0.0,91,0.00,BKN,,0.00,WeatherDisplay:10.37,2013-02-15 04:20:00,
2013-02-14 23:25:00,23.4,21.4,29.97,West,267,0.0,0.0,92,0.00,BKN,,0.00,WeatherDisplay:10.37,2013-02-15 04:25:00,
2013-02-14 23:30:00,23.5,21.5,29.97,West,267,0.0,0.0,92,0.00,BKN,,0.00,WeatherDisplay:10.37,2013-02-15 04:30:00,
2013-02-14 23:35:00,23.5,21.3,29.97,West,267,0.0,0.0,91,0.00,BKN,,0.00,WeatherDisplay:10.37,2013-02-15 04:35:00,
2013-02-14 23:40:00,23.5,21.3,29.97,West,267,0.0,0.0,91,0.00,BKN,,0.00,WeatherDisplay:10.37,2013-02-15 04:40:00,
2013-02-14 23:45:00,23.6,21.4,29.97,West,267,0.0,0.0,91,0.00,BKN,,0.00,WeatherDisplay:10.37,2013-02-15 04:45:00,
2013-02-14 23:50:00,23.6,21.4,29.97,West,267,0.0,0.0,91,0.00,BKN,,0.00,WeatherDisplay:10.37,2013-02-15 04:50:00,
2013-02-14 23:55:00,23.6,21.4,29.97,West,267,0.0,0.0,91,0.00,BKN,,0.00,WeatherDisplay:10.37,2013-02-15 04:55:00,